User: anonymous   Login
Location: La Pernelle
(49.6188°N, 1.2999°W)
Time: 10:41:30
(UTC+00:00)
Language:

Cosmos 2322 Rocket - Orbit

View from above orbital plane
View from above orbital plane
View from above satellite
View from above satellite

Ground track
Ground track

The orbit data is extracted from the following two-line orbital elements,

1 23705U 95058B   21270.60520980  .00000190  00000-0  12245-3 0  9993
2 23705  71.0251 348.7982 0010377  71.3080 288.9168 14.15155819338065
Epoch (UTC): 27 September 2021 14:31:30
Eccentricity: 0.0010377
inclination: 71.0251°
perigee height: 834 km
apogee height: 849 km
right ascension of ascending node: 348.7982°
argument of perigee: 71.3080°
revolutions per day: 14.15155819
mean anomaly at epoch: 288.9168°
orbit number at epoch: 33806

The dashed part of the orbit path shows where the satellite is in the earth's shadow,  

DLR